TimeCDT,TemperatureF,Dew PointF,Humidity,Sea Level PressureIn,VisibilityMPH,Wind Direction,Wind SpeedMPH,Gust SpeedMPH,PrecipitationIn,Events,Conditions,WindDirDegrees,DateUTC
12:15 AM,28.4,26.6,93,29.93,10.0,North,26.5,34.5,0.00,,Overcast,350,2013-04-18 05:15:00
12:37 AM,28.4,24.8,86,29.95,10.0,North,28.8,39.1,0.00,,Overcast,350,2013-04-18 05:37:00
12:53 AM,28.9,25.0,85,30.02,10.0,North,25.3,33.4,0.00,,Overcast,360,2013-04-18 05:53:00
1:22 AM,28.4,24.8,86,29.92,10.0,North,27.6,36.8,N/A,,Overcast,360,2013-04-18 06:22:00
1:53 AM,28.0,23.0,81,29.99,9.0,North,23.0,40.3,0.00,,Overcast,350,2013-04-18 06:53:00
2:41 AM,28.4,24.8,86,29.97,2.5,North,21.9,33.4,0.00,Snow,Light Snow,350,2013-04-18 07:41:00
2:48 AM,28.4,24.8,86,29.93,1.8,North,23.0,29.9,0.00,Snow,Light Snow,350,2013-04-18 07:48:00
2:53 AM,28.0,24.1,85,29.99,1.2,North,26.5,33.4,0.00,Snow,Light Snow,350,2013-04-18 07:53:00
3:02 AM,26.6,24.8,93,29.92,1.0,NNW,20.7,28.8,0.00,Snow,Light Snow,340,2013-04-18 08:02:00
3:21 AM,26.6,24.8,93,29.91,1.2,NNW,23.0,28.8,0.00,Snow,Light Snow,340,2013-04-18 08:21:00
3:37 AM,26.6,24.8,93,29.95,1.0,NNW,21.9,28.8,0.00,Snow,Light Snow,330,2013-04-18 08:37:00
3:51 AM,26.6,24.8,93,29.90,1.2,NNW,24.2,31.1,0.00,Snow,Light Snow,340,2013-04-18 08:51:00
3:53 AM,27.0,24.1,89,29.97,1.2,NNW,23.0,31.1,0.00,Snow,Light Snow,340,2013-04-18 08:53:00
4:10 AM,26.6,23.0,86,29.90,2.5,NNW,24.2,36.8,0.00,Snow,Light Snow,340,2013-04-18 09:10:00
4:42 AM,26.6,23.0,86,29.92,1.8,NNW,24.2,35.7,0.00,Snow,Light Snow,330,2013-04-18 09:42:00
4:53 AM,27.0,23.0,85,29.98,1.5,NNW,26.5,34.5,0.00,Snow,Light Snow,330,2013-04-18 09:53:00
5:53 AM,26.1,23.0,88,29.97,1.2,NNW,25.3,32.2,0.00,Snow,Light Snow,330,2013-04-18 10:53:00
6:19 AM,26.6,23.0,86,29.91,1.0,NNW,28.8,34.5,0.00,Snow,Light Snow,330,2013-04-18 11:19:00
6:32 AM,26.6,23.0,86,29.91,1.0,NNW,24.2,34.5,0.00,Snow,Light Snow,330,2013-04-18 11:32:00
6:41 AM,26.6,23.0,86,29.92,0.8,NNW,24.2,32.2,0.00,Snow,Light Snow,330,2013-04-18 11:41:00
6:53 AM,26.1,23.0,88,29.99,0.8,NNW,23.0,-,0.01,Snow,Light Snow,330,2013-04-18 11:53:00
7:18 AM,26.6,23.0,86,29.92,0.5,NNW,19.6,31.1,0.00,Fog-Snow,Snow,330,2013-04-18 12:18:00
7:46 AM,26.6,23.0,86,29.93,0.5,NNW,23.0,29.9,0.00,Fog-Snow,Snow,330,2013-04-18 12:46:00
7:53 AM,26.1,23.0,88,30.00,0.5,NNW,27.6,36.8,0.00,Fog-Snow,Snow,330,2013-04-18 12:53:00
8:08 AM,26.6,23.0,86,29.93,0.8,NNW,26.5,38.0,0.00,Snow,Light Snow,330,2013-04-18 13:08:00
8:53 AM,26.1,23.0,88,30.00,1.0,NNW,19.6,27.6,0.00,Snow,Light Snow,330,2013-04-18 13:53:00
9:03 AM,26.6,23.0,86,29.92,1.5,NNW,26.5,32.2,0.00,Snow,Light Snow,330,2013-04-18 14:03:00
9:22 AM,26.6,23.0,86,29.92,2.0,NW,20.7,32.2,0.00,Snow,Light Snow,320,2013-04-18 14:22:00
9:41 AM,26.6,21.2,80,29.93,1.8,NNW,27.6,36.8,0.00,Snow,Light Snow,340,2013-04-18 14:41:00
9:50 AM,26.6,21.2,80,29.93,2.0,NNW,26.5,36.8,0.00,Snow,Light Snow,340,2013-04-18 14:50:00
9:53 AM,27.0,21.0,78,30.00,2.0,NNW,26.5,36.8,0.00,Snow,Light Snow,340,2013-04-18 14:53:00
10:01 AM,26.6,21.2,80,29.93,1.5,NNW,27.6,38.0,0.00,Snow,Light Snow,340,2013-04-18 15:01:00
10:17 AM,26.6,21.2,80,29.94,2.0,NNW,29.9,36.8,0.00,Snow,Light Snow,330,2013-04-18 15:17:00
10:36 AM,28.4,21.2,74,29.94,3.0,NNW,25.3,36.8,0.00,Snow,Light Snow,330,2013-04-18 15:36:00
10:46 AM,26.6,21.2,80,29.94,2.0,NNW,27.6,39.1,0.00,Snow,Light Snow,340,2013-04-18 15:46:00
10:53 AM,28.0,21.9,78,30.02,2.5,NNW,28.8,36.8,0.00,Snow,Light Snow,330,2013-04-18 15:53:00
11:09 AM,28.4,23.0,80,29.95,1.0,NNW,28.8,34.5,0.00,Snow,Light Snow,330,2013-04-18 16:09:00
11:32 AM,26.6,23.0,86,29.95,0.8,NNW,23.0,32.2,0.00,Snow,Light Snow,330,2013-04-18 16:32:00
11:44 AM,28.4,23.0,80,29.95,1.2,NW,25.3,-,0.00,Snow,Light Snow,320,2013-04-18 16:44:00
11:53 AM,28.0,23.0,81,30.02,1.2,NNW,26.5,34.5,0.00,Snow,Light Snow,330,2013-04-18 16:53:00
12:25 PM,28.4,23.0,80,29.94,0.8,NW,26.5,36.8,0.00,Snow,Light Snow,320,2013-04-18 17:25:00
12:32 PM,28.4,23.0,80,29.94,1.2,NW,27.6,36.8,0.00,Snow,Light Snow,320,2013-04-18 17:32:00
12:53 PM,28.9,24.1,82,30.01,1.8,NNW,23.0,36.8,0.00,Snow,Light Snow,330,2013-04-18 17:53:00
1:13 PM,28.4,24.8,86,29.94,1.0,NW,26.5,35.7,0.00,Snow,Light Snow,320,2013-04-18 18:13:00
1:21 PM,28.4,24.8,86,29.94,1.8,NW,29.9,35.7,0.00,Snow,Light Snow,320,2013-04-18 18:21:00
1:29 PM,28.4,24.8,86,29.94,2.5,NNW,27.6,41.4,0.00,Snow,Light Snow,330,2013-04-18 18:29:00
1:37 PM,30.2,24.8,80,29.94,3.0,NW,31.1,36.8,0.00,Snow,Light Snow,320,2013-04-18 18:37:00
1:48 PM,30.2,24.8,80,29.94,2.5,NW,31.1,39.1,0.00,Snow,Light Snow,320,2013-04-18 18:48:00
1:53 PM,30.9,24.1,76,30.01,4.0,NNW,29.9,40.3,0.00,Snow,Light Snow,330,2013-04-18 18:53:00
2:53 PM,30.9,24.1,76,30.01,8.0,NNW,34.5,39.1,0.00,,Overcast,330,2013-04-18 19:53:00
3:53 PM,32.0,23.0,69,30.01,10.0,NNW,28.8,38.0,0.00,,Overcast,330,2013-04-18 20:53:00
4:25 PM,33.8,23.0,65,29.94,10.0,NNW,26.5,38.0,0.00,,Overcast,330,2013-04-18 21:25:00
4:53 PM,33.1,21.9,64,30.01,10.0,NNW,31.1,38.0,0.00,,Overcast,340,2013-04-18 21:53:00
5:53 PM,32.0,21.9,66,30.03,10.0,NNW,26.5,40.3,0.00,,Overcast,340,2013-04-18 22:53:00
6:53 PM,30.9,24.1,76,30.04,6.0,NW,25.3,31.1,0.00,,Overcast,320,2013-04-18 23:53:00
7:01 PM,30.2,24.8,80,29.97,1.8,NNW,21.9,32.2,0.00,Snow,Light Snow,330,2013-04-19 00:01:00
7:09 PM,30.2,24.8,80,29.97,2.0,NNW,17.3,28.8,0.00,Snow,Light Snow,330,2013-04-19 00:09:00
7:16 PM,30.2,24.8,80,29.97,9.0,NNW,17.3,-,0.00,,Overcast,330,2013-04-19 00:16:00
7:53 PM,30.9,24.1,76,30.04,10.0,NW,21.9,27.6,0.00,,Overcast,320,2013-04-19 00:53:00
8:53 PM,30.0,23.0,75,30.05,10.0,NW,17.3,26.5,N/A,,Mostly Cloudy,320,2013-04-19 01:53:00
9:53 PM,30.0,23.0,75,30.07,10.0,NW,13.8,-,N/A,,Overcast,320,2013-04-19 02:53:00
10:53 PM,28.9,21.0,72,30.06,10.0,NW,11.5,-,N/A,,Clear,320,2013-04-19 03:53:00
11:53 PM,28.0,19.9,72,30.04,10.0,NW,13.8,-,N/A,,Clear,310,2013-04-19 04:53:00